TimeCDT,TemperatureF,Dew PointF,Humidity,Sea Level PressureIn,VisibilityMPH,Wind Direction,Wind SpeedMPH,Gust SpeedMPH,PrecipitationIn,Events,Conditions,WindDirDegrees,DateUTC
12:53 AM,70.0,64.0,81,29.88,10.0,Calm,Calm,-,0.00,,Overcast,0,2013-09-10 05:53:00
1:53 AM,68.0,64.9,90,29.94,4.0,SSW,19.6,24.2,0.07,Rain,Heavy Rain,210,2013-09-10 06:53:00
2:53 AM,66.0,61.0,84,29.93,10.0,SSW,6.9,-,0.11,Rain,Light Rain,210,2013-09-10 07:53:00
3:53 AM,64.9,61.0,87,29.93,10.0,SSW,5.8,-,0.04,Rain,Light Rain,210,2013-09-10 08:53:00
4:53 AM,64.9,62.1,90,29.92,10.0,South,8.1,-,0.01,,Mostly Cloudy,180,2013-09-10 09:53:00
5:53 AM,64.0,62.1,93,29.91,10.0,West,4.6,-,N/A,,Overcast,280,2013-09-10 10:53:00
6:53 AM,64.0,62.1,93,29.92,10.0,Calm,Calm,-,N/A,,Clear,0,2013-09-10 11:53:00
7:53 AM,64.9,61.0,87,29.96,10.0,SW,6.9,-,N/A,,Clear,230,2013-09-10 12:53:00
8:53 AM,64.9,62.1,90,29.97,10.0,WSW,5.8,-,N/A,,Scattered Clouds,240,2013-09-10 13:53:00
9:53 AM,68.0,63.0,84,30.00,10.0,West,8.1,-,N/A,,Clear,280,2013-09-10 14:53:00
10:53 AM,73.0,63.0,71,29.99,10.0,West,11.5,-,N/A,,Clear,280,2013-09-10 15:53:00
11:53 AM,75.0,62.1,64,30.01,10.0,WNW,9.2,-,N/A,,Clear,290,2013-09-10 16:53:00
12:53 PM,75.9,61.0,60,30.01,10.0,NNW,6.9,-,N/A,,Clear,330,2013-09-10 17:53:00
1:53 PM,78.1,59.0,52,30.01,10.0,West,4.6,-,N/A,,Clear,280,2013-09-10 18:53:00
2:53 PM,80.1,57.0,45,30.00,10.0,Variable,5.8,-,N/A,,Clear,0,2013-09-10 19:53:00
3:53 PM,80.1,55.9,43,30.00,10.0,NW,5.8,-,N/A,,Clear,310,2013-09-10 20:53:00
4:53 PM,80.1,54.0,40,30.00,10.0,WSW,4.6,-,N/A,,Clear,250,2013-09-10 21:53:00
5:53 PM,78.1,60.1,54,30.00,10.0,South,8.1,-,N/A,,Clear,190,2013-09-10 22:53:00
6:53 PM,75.0,61.0,62,30.01,10.0,SW,5.8,-,N/A,,Partly Cloudy,220,2013-09-10 23:53:00
7:53 PM,73.9,62.1,66,30.02,10.0,SW,4.6,-,0.00,Rain,Light Rain,230,2013-09-11 00:53:00
8:53 PM,72.0,63.0,73,30.04,10.0,WSW,6.9,-,0.00,,Clear,240,2013-09-11 01:53:00
9:53 PM,71.1,60.1,68,30.05,10.0,SW,4.6,-,N/A,,Clear,230,2013-09-11 02:53:00
10:53 PM,68.0,61.0,78,30.06,10.0,West,5.8,-,N/A,,Clear,260,2013-09-11 03:53:00
11:53 PM,66.9,59.0,76,30.07,10.0,WSW,5.8,-,N/A,,Clear,250,2013-09-11 04:53:00